User: anonymous   Login
Location: Unspecified
(0.0000°N, 0.0000°E)
Time: 19:37:17
(UTC+00:00)
Language:

PROBA 2 - Orbit

View from above orbital plane
View from above orbital plane
View from above satellite
View from above satellite

Ground track
Ground track

The orbit data is extracted from the following two-line orbital elements,

1 36037U 09059B   17232.94810943 +.00000005 +00000-0 +12076-4 0  9990
2 36037 098.2513 065.3709 0014299 133.2104 227.0289 14.53006849413444
Epoch (UTC): 20 August 2017 22:45:16
Eccentricity: 0.0014299
inclination: 98.2513°
perigee height: 706 km
apogee height: 726 km
right ascension of ascending node: 65.3709°
argument of perigee: 133.2104°
revolutions per day: 14.53006849
mean anomaly at epoch: 227.0289°
orbit number at epoch: 41344

The dashed part of the orbit path shows where the satellite is in the earth's shadow,  

DLR